• Join FlightAware (Why Join?)
  • Login
  • US Flag 
03:18AM EST


 

Airport Tracker/Info


-or-


 

Live Flight TrackerFlight Track Log ✈ N4500Y ✈ 21-Aug-2013 ✈ KHOU - KIYA

Flight Track Log - Related Links

Times and Time Zones

All times are in EDT time to prevent confusion due to time zone crossing. See the N4500Y flight status page for this flight to view local times or setup timezone preferences in your user account.

Time Position Orientation Groundspeed Altitude Reporting Facility
EDT Latitude Longitude Course Direction KTS MPH feet Rate Location/Type
06:02PM 29.6336 -95.2700 149° Southeast 117 135 400  Level Houston Center
06:04PM 29.6011 -95.2472 149° Southeast 127 146 1,500 926 Climbing Houston Center
06:05PM 29.5753 -95.2219 140° Southeast 125 144 2,500 726 Climbing Houston Center
06:06PM 29.5497 -95.1814 126° Southeast 139 160 3,000 242 Climbing Houston Center
06:07PM 29.5517 -95.1328 87° East 152 175 3,000  Level Houston Center
06:08PM 29.5592 -95.0867 79° East 152 175 3,000  Level Houston Center
06:09PM 29.5672 -95.0411 78° East 150 173 3,000  Level Houston Center
06:10PM 29.5753 -94.9817 81° East 158 182 3,000  Level Houston Center
06:11PM 29.5828 -94.9353 79° East 153 176 3,000  Level Houston Center
06:12PM 29.5900 -94.8739 82° East 161 185 3,000 224 Level Houston Center
06:13PM 29.5981 -94.8250 79° East 146 168 3,500 828 Climbing Houston Center
06:14PM 29.6031 -94.7906 81° East 112 129 4,600 789 Climbing Houston Center
06:15PM 29.6081 -94.7572 80° East 125 144 5,000 197 Climbing Houston Center
06:16PM 29.6150 -94.6953 83° East 166 191 5,000 32 Level Houston Center
06:18PM 29.6283 -94.5956 81° East 158 182 5,100  Climbing Houston Center
06:19PM 29.6350 -94.5467 81° East 155 178 5,000 -48 Descending Houston Center
06:20PM 29.6408 -94.4939 83° East 163 188 5,000 387 Level Houston Center
06:21PM 29.6478 -94.4456 81° East 155 178 5,800 823 Climbing Houston Center
06:22PM 29.6633 -94.3942 71° East 143 165 6,700 629 Climbing Houston Center
06:23PM 29.6800 -94.3475 68° East 155 178 7,100 145 Climbing Houston Center
06:24PM 29.6994 -94.2978 66° East 168 193 7,000 -49 Descending Houston Center
06:25PM 29.7197 -94.2439 67° East 169 194 7,000  Level Houston Center
06:26PM 29.7417 -94.1903 65° Northeast 168 193 7,000  Level Houston Center
06:27PM 29.7564 -94.1453 69° East 165 190 7,000  Level Houston Center
06:28PM 29.7728 -94.1044 65° Northeast 164 189 7,000  Level Houston Center
06:29PM 29.7925 -94.0486 68° East 168 193 7,000  Level Houston Center
06:30PM 29.8122 -93.9956 67° East 169 194 7,000  Level Houston Center
06:32PM 29.8328 -93.9369 68° East 170 196 7,000  Level Houston Center
06:33PM 29.8517 -93.8864 67° East 173 199 7,000  Level Houston Center
06:34PM 29.8692 -93.8361 68° East 169 194 7,000  Level Houston Center
06:35PM 29.8733 -93.7836 85° East 165 190 7,000  Level Houston Center
06:36PM 29.8742 -93.7275 89° East 172 198 7,000  Level Houston Center
06:37PM 29.8761 -93.6731 88° East 172 198 7,000  Level Houston Center
06:38PM 29.8797 -93.6086 86° East 169 194 7,000  Level Houston Center
06:39PM 29.8828 -93.5539 86° East 171 197 7,000  Level Houston Center
06:40PM 29.8867 -93.4989 85° East 173 199 7,000  Level Houston Center
06:41PM 29.8906 -93.4456 85° East 170 196 7,000  Level Houston Center
06:42PM 29.8939 -93.3914 86° East 170 196 7,000  Level Houston Center
06:43PM 29.8967 -93.3375 87° East 169 194 7,000  Level Houston Center
06:44PM 29.9003 -93.2736 86° East 168 193 7,000  Level Houston Center
06:45PM 29.9028 -93.2186 87° East 172 198 7,000  Level Houston Center
06:46PM 29.9067 -93.1647 85° East 171 197 7,000  Level Houston Center
06:47PM 29.9103 -93.1100 86° East 171 197 7,000  Level Houston Center
06:48PM 29.9161 -93.0561 83° East 170 196 7,000  Level Houston Center
06:49PM 29.9197 -93.0031 85° East 169 194 7,000  Level Houston Center
06:50PM 29.9219 -92.9367 88° East 171 197 7,000  Level Houston Center
06:51PM 29.9244 -92.8847 87° East 169 194 7,000 -145 Level Houston Center
06:52PM 29.9244 -92.8306 90° East 168 193 6,700 -290 Descending Houston Center
06:53PM 29.9233 -92.7711 91° East 179 206 6,400 -390 Descending Houston Center
06:54PM 29.9272 -92.7131 86° East 182 209 5,900 -488 Descending Houston Center
06:55PM 29.9333 -92.6531 83° East 187 215 5,400 -435 Descending Houston Center
06:56PM 29.9389 -92.5828 85° East 186 214 5,000 -339 Descending Houston Center
06:57PM 29.9431 -92.5264 85° East 180 207 4,700 -242 Descending Houston Center
06:58PM 29.9475 -92.4692 85° East 179 206 4,500 -145 Descending Houston Center
06:59PM 29.9514 -92.4119 86° East 180 207 4,400 -97 Descending Houston Center
07:01PM 29.9545 -92.3453 87° East  Level FlightAware Approximate
07:08PM 29.9667 -92.0833 85° East  Level FlightAware Approximate
07:09PM 29.9758 -92.0842 85° East  Level Estimated
07:10PM 29.9758 -92.0842 85° East  Level Estimated
07:11PM 29.9758 -92.0842 85° East  Level Estimated
07:12PM 29.9758 -92.0842 85° East  Level Estimated
07:13PM 29.9758 -92.0842 85° East  Level Estimated
07:14PM 29.9758 -92.0842 85° East  Level Estimated
07:15PM 29.9758 -92.0842 85° East  Level Estimated
07:16PM 29.9758 -92.0842 85° East  Level Estimated
07:17PM 29.9758 -92.0842 85° East  Level Estimated
07:18PM 29.9758 -92.0842 85° East  Level Estimated
07:19PM 29.9758 -92.0842 85° East  Level Estimated
07:20PM 29.9758 -92.0842 85° East  Level Estimated
07:21PM 29.9758 -92.0842 85° East  Level Estimated
07:22PM 29.9758 -92.0842 85° East  Level Estimated
07:23PM 29.9758 -92.0842 85° East  Level Estimated
07:24PM 29.9758 -92.0842 85° East  Level Estimated
07:25PM 29.9758 -92.0842 85° East  Level Estimated